M0UPS-13 Weather Reports


Display with metric or nautical units.
time (UTC)temp
F
wind
direction
speed
MPH
gust
MPH
rain 1hr
in
rain 24hr
in
rain mn
in
humidity
%
barometer
mb
20260510125002 55 110 2.0 6.0 0.00 0.00 0.00 65 1016.6
20260510124502 55 313 3.0 10.0 0.00 0.00 0.00 63 1016.7
20260510124002 55 109 5.0 9.0 0.00 0.00 0.00 64 1017.0
20260510123502 55 60 3.0 10.0 0.00 0.00 0.00 62 1017.0
20260510123003 56 119 6.0 9.0 0.00 0.00 0.00 62 1017.1
20260510122502 57 46 4.0 5.0 0.00 0.00 0.00 61 1017.0
20260510122002 56 53 5.0 6.0 0.00 0.00 0.00 61 1016.7
20260510121502 56 107 3.0 5.0 0.00 0.00 0.00 62 1016.8
20260510121002 56 43 6.0 12.0 0.00 0.00 0.00 61 1016.8
20260510120502 56 284 3.0 6.0 0.00 0.00 0.00 62 1017.1
20260510120002 56 160 2.0 7.0 0.00 0.00 0.00 62 1017.1
20260510115502 56 83 5.0 9.0 0.00 0.00 0.00 61 1017.1
20260510115002 56 61 3.0 9.0 0.00 0.00 0.00 61 1017.1
20260510114502 56 67 5.0 10.0 0.00 0.00 0.00 61 1017.1
20260510114002 56 39 3.0 7.0 0.00 0.00 0.00 61 1017.2
20260510113502 56 121 2.0 9.0 0.00 0.00 0.00 61 1017.0
20260510113002 56 143 3.0 7.0 0.00 0.00 0.00 61 1017.0
20260510112502 56 36 1.0 6.0 0.00 0.00 0.00 61 1017.3
20260510112002 56 319 3.0 12.0 0.00 0.00 0.00 61 1017.2
20260510111502 56 28 4.0 6.0 0.00 0.00 0.00 60 1017.5
20260510111002 56 315 3.0 10.0 0.00 0.00 0.00 60 1017.3
20260510110502 56 141 3.0 5.0 0.00 0.00 0.00 62 1017.4
20260510110002 56 53 1.0 5.0 0.00 0.00 0.00 63 1017.5
20260510105502 56 52 3.0 5.0 0.00 0.00 0.00 63 1017.5
20260510105002 55 7 3.0 6.0 0.00 0.00 0.00 63 1017.5
20260510104502 55 233 2.0 9.0 0.00 0.00 0.00 64 1017.5
20260510104002 56 53 3.0 7.0 0.00 0.00 0.00 63 1017.8
20260510103502 56 137 4.0 9.0 0.00 0.00 0.00 63 1017.6
20260510103002 56 304 1.0 5.0 0.00 0.00 0.00 64 1017.5
20260510102502 55 40 3.0 6.0 0.00 0.00 0.00 64 1017.5
20260510102002 55 42 3.0 7.0 0.00 0.00 0.00 64 1017.8
20260510101502 55 22 4.0 6.0 0.00 0.00 0.00 64 1017.6
20260510101002 55 321 1.0 5.0 0.00 0.00 0.00 64 1017.6
20260510100502 55 45 4.0 5.0 0.00 0.00 0.00 65 1017.3
20260510100002 55 14 2.0 5.0 0.00 0.00 0.00 65 1017.2
20260510095502 55 356 4.0 6.0 0.00 0.00 0.00 65 1017.4
20260510095002 55 166 3.0 6.0 0.00 0.00 0.00 64 1017.6
20260510094502 55 350 4.0 7.0 0.00 0.00 0.00 64 1017.7
20260510094002 55 219 2.0 6.0 0.00 0.00 0.00 65 1017.8
20260510093502 55 192 5.0 6.0 0.00 0.00 0.00 65 1017.6
20260510093002 55 128 7.0 9.0 0.00 0.00 0.00 64 1017.8
20260510092502 55 327 4.0 9.0 0.00 0.00 0.00 65 1017.8
20260510092002 55 103 2.0 10.0 0.00 0.00 0.00 64 1017.8
20260510091502 54 275 1.0 7.0 0.00 0.00 0.00 65 1017.5
20260510091002 54 254 3.0 7.0 0.00 0.00 0.00 66 1017.6
20260510090502 54 30 1.0 9.0 0.00 0.00 0.00 67 1017.8
20260510090002 54 347 3.0 6.0 0.00 0.00 0.00 68 1017.6
20260510085502 54 19 7.0 10.0 0.00 0.00 0.00 67 1018.0
20260510085002 54 342 3.0 6.0 0.00 0.00 0.00 68 1017.9
20260510084502 54 78 3.0 6.0 0.00 0.00 0.00 68 1017.9
20260510084002 54 59 4.0 6.0 0.00 0.00 0.00 68 1018.0
20260510083502 54 332 2.0 9.0 0.00 0.00 0.00 69 1017.9
20260510083002 53 106 2.0 4.0 0.00 0.00 0.00 70 1018.1
20260510082503 53 30 4.0 6.0 0.00 0.00 0.00 70 1018.0
20260510082003 53 27 4.0 9.0 0.00 0.00 0.00 70 1018.0
20260510081502 53 225 1.0 9.0 0.00 0.00 0.00 70 1018.0
20260510081003 53 306 1.0 3.0 0.00 0.00 0.00 71 1018.0
20260510080502 53 32 5.0 7.0 0.00 0.00 0.00 70 1018.2
20260510080002 52 293 1.0 6.0 0.00 0.00 0.00 72 1017.9
20260510075502 52 26 4.0 11.0 0.00 0.00 0.00 72 1018.0
20260510075002 52 46 3.0 9.0 0.00 0.00 0.00 73 1018.0
20260510074502 52 30 5.0 6.0 0.00 0.00 0.00 73 1018.0
20260510074002 52 125 3.0 4.0 0.00 0.00 0.00 73 1018.0
20260510073502 52 65 3.0 7.0 0.00 0.00 0.00 73 1018.0
20260510073002 52 73 5.0 7.0 0.00 0.00 0.00 73 1018.0
20260510072502 52 49 3.0 6.0 0.00 0.00 0.00 74 1018.0
20260510072002 52 317 3.0 7.0 0.00 0.00 0.00 74 1018.1
20260510071502 52 325 1.0 6.0 0.00 0.00 0.00 74 1018.0
20260510071002 52 31 2.0 9.0 0.00 0.00 0.00 74 1017.9
20260510070502 52 357 1.0 7.0 0.00 0.00 0.00 75 1018.0
20260510070002 51 19 3.0 7.0 0.00 0.00 0.00 75 1018.0
20260510065502 51 302 1.0 6.0 0.00 0.00 0.00 75 1018.0
20260510065002 51 346 1.0 7.0 0.00 0.00 0.00 75 1017.9
20260510064502 51 330 4.0 10.0 0.00 0.00 0.00 75 1017.8
20260510064002 51 352 3.0 10.0 0.00 0.00 0.00 76 1018.0
20260510063502 51 33 1.0 6.0 0.00 0.00 0.00 75 1018.0
20260510063002 51 225 1.0 6.0 0.00 0.00 0.00 76 1017.9
20260510062502 51 64 3.0 4.0 0.00 0.00 0.00 77 1018.0
20260510062002 51 18 4.0 6.0 0.00 0.00 0.00 76 1017.9
20260510061502 51 108 3.0 7.0 0.00 0.00 0.00 76 1017.8
20260510061002 51 288 2.0 5.0 0.00 0.00 0.00 76 1017.9
20260510060502 51 61 3.0 6.0 0.00 0.00 0.00 76 1017.9
20260510060002 51 59 5.0 7.0 0.00 0.00 0.00 76 1017.8
20260510055502 51 316 4.0 9.0 0.00 0.00 0.00 76 1017.7
20260510055002 51 0 3.0 7.0 0.00 0.00 0.00 76 1017.7
20260510054502 51 103 3.0 7.0 0.00 0.00 0.00 76 1017.6
20260510054002 51 44 2.0 7.0 0.00 0.00 0.00 77 1017.7
20260510053502 51 310 2.0 4.0 0.00 0.00 0.00 77 1017.7
20260510053002 51 310 1.0 4.0 0.00 0.00 0.00 77 1017.6
20260510052502 50 74 1.0 6.0 0.00 0.00 0.00 77 1017.8
20260510052002 50 63 3.0 7.0 0.00 0.00 0.00 78 1017.5
20260510051502 50 43 2.0 4.0 0.00 0.00 0.00 79 1017.8
20260510051002 50 347 1.0 5.0 0.00 0.00 0.00 79 1017.7
20260510050502 50 61 1.0 4.0 0.00 0.00 0.00 79 1017.8
20260510050002 50 204 2.0 5.0 0.00 0.00 0.00 80 1017.6
20260510045502 50 28 2.0 5.0 0.00 0.00 0.00 81 1017.5
20260510045002 50 26 3.0 6.0 0.00 0.00 0.00 81 1017.5
20260510044502 50 322 1.0 5.0 0.00 0.00 0.00 82 1017.6
20260510044003 50 356 2.0 3.0 0.00 0.00 0.00 82 1017.7
20260510043502 50 224 0.0 2.0 0.00 0.00 0.00 82 1017.7
20260510043002 50 291 0.0 2.0 0.00 0.00 0.00 82 1017.8
20260510042502 50 23 2.0 3.0 0.00 0.00 0.00 82 1017.7
20260510042002 50 313 1.0 7.0 0.00 0.00 0.00 82 1017.8
20260510041502 50 58 1.0 5.0 0.00 0.00 0.00 82 1018.0
20260510041002 50 289 2.0 5.0 0.00 0.00 0.00 82 1017.7
20260510040502 50 240 1.0 2.0 0.00 0.00 0.00 82 1017.8
20260510040002 50 279 1.0 2.0 0.00 0.00 0.00 82 1017.9
20260510035502 50 329 1.0 4.0 0.00 0.00 0.00 82 1017.8
20260510035002 50 320 1.0 3.0 0.00 0.00 0.00 82 1018.0
20260510034502 50 227 1.0 3.0 0.00 0.00 0.00 82 1017.9
20260510034002 50 304 0.0 3.0 0.00 0.00 0.00 81 1018.1
20260510033502 50 320 1.0 4.0 0.00 0.00 0.00 81 1017.9
20260510033002 50 19 3.0 6.0 0.00 0.00 0.00 81 1018.0
20260510032502 50 52 3.0 5.0 0.00 0.00 0.00 81 1018.1
20260510032002 50 174 2.0 7.0 0.00 0.00 0.00 81 1018.0
20260510031502 50 332 1.0 7.0 0.00 0.00 0.00 81 1018.0
20260510031002 50 336 1.0 4.0 0.00 0.00 0.00 81 1018.0
20260510030502 50 332 1.0 5.0 0.00 0.00 0.00 81 1018.0
20260510030002 50 284 1.0 4.0 0.00 0.00 0.00 81 1018.1
20260510025502 50 24 2.0 5.0 0.00 0.00 0.00 81 1018.0
20260510025003 50 323 1.0 2.0 0.00 0.00 0.00 81 1018.0
20260510024502 50 304 2.0 9.0 0.00 0.00 0.00 81 1018.0
20260510024003 50 337 3.0 6.0 0.00 0.00 0.00 81 1018.2
20260510023502 50 303 1.0 3.0 0.00 0.00 0.00 80 1018.1
20260510023002 50 283 0.0 5.0 0.00 0.00 0.00 80 1018.1
20260510022502 50 48 4.0 6.0 0.00 0.00 0.00 80 1018.0
20260510022002 50 73 3.0 5.0 0.00 0.00 0.00 79 1018.0
20260510021502 51 60 2.0 11.0 0.00 0.00 0.00 78 1018.1
20260510021002 51 238 1.0 3.0 0.00 0.00 0.00 76 1018.1
20260510020502 51 56 3.0 6.0 0.00 0.00 0.00 76 1018.1
20260510020002 51 275 2.0 5.0 0.00 0.00 0.00 75 1018.0
20260510015502 51 278 1.0 4.0 0.00 0.00 0.00 74 1018.0
20260510015002 51 50 1.0 7.0 0.00 0.00 0.00 73 1017.9
20260510014502 52 62 6.0 7.0 0.00 0.00 0.00 72 1018.0
20260510014002 52 31 4.0 9.0 0.00 0.00 0.00 71 1018.0
20260510013502 52 71 3.0 7.0 0.00 0.00 0.00 70 1018.0
20260510013002 52 323 1.0 4.0 0.00 0.00 0.00 70 1018.0
20260510012503 52 300 1.0 5.0 0.00 0.00 0.00 70 1018.1
20260510012003 52 351 1.0 3.0 0.00 0.00 0.00 70 1018.0
20260510011502 52 40 3.0 3.0 0.00 0.00 0.00 70 1018.0
20260510011002 53 23 3.0 4.0 0.00 0.00 0.00 70 1018.0
20260510010502 53 350 2.0 3.0 0.00 0.00 0.00 69 1018.1
20260510010003 53 333 3.0 6.0 0.00 0.00 0.00 69 1018.0
20260510005502 53 111 3.0 5.0 0.00 0.00 0.00 68 1018.1
20260510005002 53 77 4.0 6.0 0.00 0.00 0.00 68 1018.3
20260510004502 53 22 2.0 5.0 0.00 0.00 0.00 68 1018.0
20260510004002 53 18 1.0 6.0 0.00 0.00 0.00 67 1018.0
20260510003502 53 58 3.0 4.0 0.00 0.00 0.00 67 1018.0
20260510003003 53 14 1.0 3.0 0.00 0.00 0.00 66 1018.0
20260510002502 53 60 3.0 5.0 0.00 0.00 0.00 65 1017.9
20260510002002 53 42 2.0 4.0 0.00 0.00 0.00 64 1018.2
20260510001502 54 273 1.0 4.0 0.00 0.00 0.00 63 1018.1
20260510001003 54 23 1.0 4.0 0.00 0.00 0.00 63 1018.2
20260510000502 54 3 2.0 4.0 0.00 0.00 0.00 62 1018.0
20260510000002 54 17 2.0 6.0 0.00 0.00 0.00 61 1018.1
20260509235503 54 148 2.0 5.0 0.00 0.00 0.00 60 1018.0
20260509235002 54 15 3.0 5.0 0.00 0.00 0.00 60 1018.0
20260509234503 54 345 2.0 5.0 0.00 0.00 0.00 59 1017.9
20260509234002 54 37 3.0 5.0 0.00 0.00 0.00 61 1017.9
20260509233502 55 283 1.0 2.0 0.00 0.00 0.00 63 1017.9
20260509233002 55 293 1.0 2.0 0.00 0.00 0.00 62 1017.8
20260509232502 55 34 3.0 4.0 0.00 0.00 0.00 62 1017.9
20260509232002 55 123 2.0 6.0 0.00 0.00 0.00 62 1018.0
20260509231502 55 310 0.0 4.0 0.00 0.00 0.00 61 1018.1
20260509231002 55 109 3.0 6.0 0.00 0.00 0.00 61 1018.0
20260509230502 55 22 3.0 4.0 0.00 0.00 0.00 61 1018.0
20260509230002 55 118 4.0 5.0 0.00 0.00 0.00 60 1018.0
20260509225502 55 99 2.0 6.0 0.00 0.00 0.00 60 1018.0
20260509225003 55 41 3.0 4.0 0.00 0.00 0.00 59 1018.0
20260509224502 56 342 1.0 3.0 0.00 0.00 0.00 58 1018.0
20260509224002 56 17 2.0 5.0 0.00 0.00 0.00 58 1018.0
20260509223502 56 23 2.0 5.0 0.00 0.00 0.00 57 1017.8
20260509223005 56 303 1.0 5.0 0.00 0.00 0.00 57 1018.0
20260509222502 56 294 2.0 5.0 0.00 0.00 0.00 56 1018.0
20260509222002 56 294 1.0 3.0 0.00 0.00 0.00 54 1018.0
20260509221503 56 293 1.0 5.0 0.00 0.00 0.00 54 1018.0
20260509221002 56 337 1.0 6.0 0.00 0.00 0.00 53 1018.0
20260509220502 56 282 3.0 5.0 0.00 0.00 0.00 53 1017.9
20260509220002 56 112 1.0 3.0 0.00 0.00 0.00 52 1018.0
20260509215502 56 293 0.0 0.0 0.00 0.00 0.00 52 1018.1
20260509215002 56 303 1.0 3.0 0.00 0.00 0.00 51 1018.0
20260509214503 57 184 1.0 3.0 0.00 0.00 0.00 51 1018.0
20260509214002 57 350 2.0 6.0 0.00 0.00 0.00 50 1018.3
20260509213502 57 299 1.0 3.0 0.00 0.00 0.00 50 1018.0
20260509213004 57 22 1.0 3.0 0.00 0.00 0.00 49 1018.0
20260509212502 57 346 1.0 3.0 0.00 0.00 0.00 49 1018.0
20260509212003 57 24 3.0 5.0 0.00 0.00 0.00 48 1017.9
20260509211502 58 282 0.0 4.0 0.00 0.00 0.00 48 1017.8
20260509211002 58 124 2.0 4.0 0.00 0.00 0.00 47 1017.8
20260509210503 58 58 1.0 3.0 0.00 0.00 0.00 47 1017.7
20260509210002 58 88 2.0 4.0 0.00 0.00 0.00 46 1017.6
20260509205502 58 318 2.0 4.0 0.00 0.00 0.00 46 1017.7
20260509205002 58 304 1.0 4.0 0.00 0.00 0.00 46 1017.6
20260509204502 58 300 1.0 4.0 0.00 0.00 0.00 46 1017.7
20260509204002 58 108 2.0 4.0 0.00 0.00 0.00 45 1017.6
20260509203503 59 62 4.0 5.0 0.00 0.00 0.00 45 1017.7
20260509203004 59 43 2.0 6.0 0.00 0.00 0.00 44 1017.6
20260509202502 59 94 3.0 5.0 0.00 0.00 0.00 44 1017.7
20260509202002 59 98 3.0 10.0 0.00 0.00 0.00 43 1017.5
20260509201502 59 55 2.0 9.0 0.00 0.00 0.00 42 1017.6
20260509201002 59 135 5.0 7.0 0.00 0.00 0.00 41 1017.8
20260509200502 59 288 0.0 2.0 0.00 0.00 0.00 41 1017.5
20260509200002 59 72 3.0 5.0 0.00 0.00 0.00 41 1017.5
20260509195502 59 109 1.0 3.0 0.00 0.00 0.00 40 1017.5
20260509195002 59 330 1.0 6.0 0.00 0.00 0.00 40 1017.4
20260509194502 60 279 1.0 3.0 0.00 0.00 0.00 39 1017.5
20260509194002 60 338 1.0 3.0 0.00 0.00 0.00 39 1017.4
20260509193502 60 65 3.0 6.0 0.00 0.00 0.00 39 1017.4
20260509193004 60 93 4.0 6.0 0.00 0.00 0.00 39 1017.2
20260509192502 60 333 2.0 5.0 0.00 0.00 0.00 39 1017.2
20260509192002 60 94 3.0 10.0 0.00 0.00 0.00 39 1017.2
20260509191502 61 188 1.0 3.0 0.00 0.00 0.00 41 1017.0
20260509191002 61 21 1.0 5.0 0.00 0.00 0.00 40 1016.8
20260509190502 61 115 2.0 5.0 0.00 0.00 0.00 40 1017.2
20260509190003 61 65 7.0 9.0 0.00 0.00 0.00 39 1017.1
20260509185503 61 27 4.0 7.0 0.00 0.00 0.00 39 1017.1
20260509185002 62 32 5.0 7.0 0.00 0.00 0.00 39 1017.0
20260509184502 62 24 4.0 7.0 0.00 0.00 0.00 39 1017.2
20260509184003 62 144 4.0 7.0 0.00 0.00 0.00 40 1017.0
20260509183502 62 30 3.0 4.0 0.00 0.00 0.00 40 1016.8
20260509183002 62 44 4.0 7.0 0.00 0.00 0.00 39 1016.8
20260509182502 63 118 4.0 9.0 0.00 0.00 0.00 39 1016.7
20260509182002 63 183 4.0 7.0 0.00 0.00 0.00 39 1016.8
20260509181502 63 321 2.0 7.0 0.00 0.00 0.00 39 1017.1
20260509181002 63 48 3.0 5.0 0.00 0.00 0.00 39 1016.8
20260509180502 63 183 2.0 7.0 0.00 0.00 0.00 39 1017.1
20260509180002 63 163 5.0 9.0 0.00 0.00 0.00 38 1016.6
20260509175502 64 72 5.0 9.0 0.00 0.00 0.00 38 1016.5
20260509175002 64 356 2.0 10.0 0.00 0.00 0.00 38 1016.5
20260509174502 64 169 8.0 13.0 0.00 0.00 0.00 37 1016.3
20260509174002 64 98 5.0 7.0 0.00 0.00 0.00 37 1016.4
20260509173502 65 65 4.0 11.0 0.00 0.00 0.00 37 1016.7
20260509173002 65 52 5.0 6.0 0.00 0.00 0.00 37 1016.4
20260509172502 66 72 3.0 7.0 0.00 0.00 0.00 37 1016.5
20260509172002 66 4 4.0 6.0 0.00 0.00 0.00 37 1016.6
20260509171502 66 271 2.0 6.0 0.00 0.00 0.00 36 1016.5
20260509171002 66 120 4.0 6.0 0.00 0.00 0.00 34 1016.5
20260509170502 67 99 5.0 7.0 0.00 0.00 0.00 33 1016.7
20260509170002 67 90 3.0 10.0 0.00 0.00 0.00 33 1016.5
20260509165502 67 138 6.0 10.0 0.00 0.00 0.00 32 1016.5
20260509165002 67 137 3.0 9.0 0.00 0.00 0.00 34 1016.5
20260509164502 68 138 2.0 6.0 0.00 0.00 0.00 34 1016.6
20260509164002 68 83 5.0 6.0 0.00 0.00 0.00 33 1016.6
20260509163502 68 187 2.0 5.0 0.00 0.00 0.00 34 1016.6
20260509163002 68 67 5.0 6.0 0.00 0.00 0.00 34 1016.4
20260509162502 68 203 3.0 10.0 0.00 0.00 0.00 34 1016.3
20260509162003 68 43 3.0 5.0 0.00 0.00 0.00 34 1016.6
20260509161502 68 175 1.0 5.0 0.00 0.00 0.00 36 1016.5
20260509161003 68 86 4.0 9.0 0.00 0.00 0.00 35 1016.6
20260509160502 68 98 3.0 9.0 0.00 0.00 0.00 35 1016.7
20260509160002 69 51 4.0 6.0 0.00 0.00 0.00 35 1016.6
20260509155502 69 91 5.0 6.0 0.00 0.00 0.00 33 1016.7
20260509155002 69 154 3.0 5.0 0.00 0.00 0.00 35 1016.6
20260509154502 70 33 3.0 5.0 0.00 0.00 0.00 33 1016.8
20260509154002 69 100 3.0 10.0 0.00 0.00 0.00 33 1016.7
20260509153503 69 167 4.0 7.0 0.00 0.00 0.00 35 1016.8
20260509153002 69 63 4.0 10.0 0.00 0.00 0.00 34 1016.8
20260509152503 70 107 4.0 6.0 0.00 0.00 0.00 34 1016.6
20260509152002 70 96 3.0 9.0 0.00 0.00 0.00 32 1016.7
20260509151502 69 73 3.0 6.0 0.00 0.00 0.00 33 1017.0
20260509151002 69 275 3.0 9.0 0.00 0.00 0.00 31 1017.1
20260509150502 69 52 3.0 11.0 0.00 0.00 0.00 33 1017.0
20260509150002 69 93 7.0 10.0 0.00 0.00 0.00 33 1016.8
20260509145502 70 188 5.0 10.0 0.00 0.00 0.00 32 1016.8
20260509145002 70 80 5.0 12.0 0.00 0.00 0.00 32 1016.6
20260509144502 70 102 2.0 10.0 0.00 0.00 0.00 34 1016.7
20260509144002 70 78 2.0 6.0 0.00 0.00 0.00 34 1016.7
20260509143502 70 24 4.0 7.0 0.00 0.00 0.00 33 1016.7
20260509143002 70 78 4.0 6.0 0.00 0.00 0.00 33 1016.6
20260509142502 70 18 5.0 9.0 0.00 0.00 0.00 33 1016.5
20260509142002 71 174 6.0 12.0 0.00 0.00 0.00 32 1016.2
20260509141502 70 267 2.0 7.0 0.00 0.00 0.00 33 1016.4
20260509141002 70 280 1.0 7.0 0.00 0.00 0.00 35 1016.3
20260509140502 70 12 2.0 11.0 0.00 0.00 0.00 34 1016.7
20260509140002 70 42 3.0 5.0 0.00 0.00 0.00 32 1016.5
20260509135502 71 240 1.0 4.0 0.00 0.00 0.00 34 1016.3
20260509135002 70 97 5.0 9.0 0.00 0.00 0.00 33 1016.4
20260509134502 70 43 7.0 9.0 0.00 0.00 0.00 32 1016.6
20260509134002 70 49 3.0 4.0 0.00 0.00 0.00 32 1016.4
20260509133502 71 67 7.0 9.0 0.00 0.00 0.00 32 1016.7
20260509133003 71 105 3.0 7.0 0.00 0.00 0.00 34 1016.8
20260509132502 71 239 1.0 5.0 0.00 0.00 0.00 33 1016.7
20260509132002 71 351 4.0 6.0 0.00 0.00 0.00 33 1016.6
20260509131502 71 59 3.0 9.0 0.00 0.00 0.00 34 1016.8
20260509131002 70 38 3.0 6.0 0.00 0.00 0.00 34 1016.7
20260509130502 70 58 5.0 10.0 0.00 0.00 0.00 34 1016.8
20260509130003 70 158 3.0 7.0 0.00 0.00 0.00 35 1016.8
20260509125502 70 57 2.0 6.0 0.00 0.00 0.00 35 1016.7